Weather in Kuressaare

Estonia     58°14′56″N   22°29′24″E
temp.,
°C
wind,
m/s
gust,
m/s
humid.,
%
clouds,
%
prec.,
mm/h
press.,
hPa
HPBL,
m
18 april, sun
sun1800:00+7ne5967100 0.0 1026140
03:00+5ne497193 0.0 1026134
06:00+5ne4878100 0.0 1026120
09:00+7ene586931 0.0 1026196
12:00+9e585947 0.0 1026355
15:00+10e465420 0.0 1026567
18:00+11ene46495 0.0 1025701
21:00+7ene33665 0.0 102633
19 april, mon
mon1900:00+6ne410730 0.0 1027146
03:00+5ne48780 0.0 1028113
06:00+4ne37840 0.0 102795
09:00+6ene46730 0.0 1028165
12:00+8e47640 0.0 1028502
15:00+9e46603 0.0 1027674
18:00+10e34565 0.0 1026559
21:00+8n337226 0.0 102640
20 april, tue
tue2000:00+6ene357516 0.0 102555
03:00+5ene358544 0.0 102462
06:00+4ne348483 0.0 102361
09:00+6e46785 0.0 1022175
12:00+6ese457019 0.0 1021407
15:00+7ese336495 0.0 1020656
18:00+8sse016065 0.0 1018707
21:00+6nnw34749 0.0 101649
21 april, wed
wed2100:00+5nnw337728 0.0 101420
03:00+4nw127787 0.0 101311
06:00+3nw22779 0.0 101120
09:00+6wnw24695 0.0 1009216
12:00+8sw34595 0.0 1007794
15:00+8sw55595 0.0 1006818
18:00+7sw4565100 0.0 1005348
21:00+5sw3683100 0.0 1004162
22 april, thu
thu2200:00+5sw489098 0.0 1004184
03:00+4ssw48936 0.0 1004199
06:00+3ssw478880 0.0 1004211
09:00+4s468417 0.0 1005374
12:00+5sse347425 0.1 1006640
15:00+5sse437599 0.3 1008526
18:00+4wnw2188100 0.9 1008416
21:00+4nnw3594100 5.5 1009283